Погода в Сайхине

Казахстан     48°48′52″N   46°45′58″E
темп.,
°C
ветер,
м/с
пор.,
м/с
влажн.,
%
обл.,
%
осадки,
мм/ч
давл.,
гПа
погр.,
м
6 марта, сб
сб623:00+3зюз51291100 0.0 1014390
02:00+3зюз4896100 0.2 1014242
05:00+2з2298100 0.9 101553
08:00+2юз0298100 1.1 101492
11:00+1св3398100 2.8 1014117
14:00+2юв1498100 1.8 1013233
17:00+2зюз4898100 3.4 1011397
20:00+2с2498100 0.9 1010130
7 марта, вс
вс723:00−1ссв5796100 1.6 1009193
02:00−3ссв81295100 3.8 1008509
05:00−3с71194100 5.4 1011612
08:00−4ссз61091100 0.4 1015504
11:00−4сз468672 0.4 1018469
14:00−2зсз568274 0.1 1019883
17:00−1зсз687273 0.2 10191072
20:00−3зюз357535 0.0 1018115
8 марта, пн
пн823:00−3ююз6136752 0.0 1017505
02:00−2юз8156826 0.0 1015710
05:00−2юз9167327 0.0 1013733
08:00−2юз916770 0.0 1013720
11:00+1зюз1014715 0.0 1012997
14:00+4зюз11166189 0.0 10111622
17:00+4зюз11166095 0.1 10101862
20:00+2юз71479100 0.1 1009742
9 марта, вт
вт923:00+1зюз71586100 0.1 1011571
02:00−3с81187100 0.8 1012484
05:00−3сз466499 0.8 1013490
08:00−4ссз3469100 0.0 1015350
11:00−3с1160100 0.0 1015415
14:00−2с1249100 0.0 10141035
17:00−3ссз3385100 0.6 1014464
20:00−3сз257096 0.1 1014535
10 марта, ср
ср1023:00−3сз356864 0.1 1017193
02:00−4зюз35690 0.0 1017228
05:00−3зсз586945 0.0 1018698
08:00−6сз686598 0.3 1020808
11:00−6сз675963 0.3 1022733
14:00−5сз56420 0.0 1023893
17:00−3зсз45370 0.0 10231038
20:00−3з49500 0.0 1020479